sat.trackr.live / text

‹ back to catalog

2023-085J

NORAD 57012 · 2023-085J

PAYLOAD ACTIVE UNKNOWN

§ Identity

Operator
Country
PRC
Launch date
2023-06-15
Launch site
TAISC
Launch vehicle
Mass (kg)
RCS (m²)

External: N2YO · Heavens-Above · Gunter

§ Orbital elements

Epoch: 2026-05-25T04:51:18.585216Z

Period
93.89 min
Inclination
97.4911°
Eccentricity
0.0007603
Mean motion
15.33757960 rev/d
Perigee alt
459.4 km
Apogee alt
469.8 km
Semi-major
6,842.7 km
B*
4.6189e-4
RAAN
257.3448°
Arg perigee
117.0934°
Mean anomaly
243.1085°
Rev number
16,324

§ Raw data

2023-085J1 57012U 23085J   26145.20229844  .00015023  00000+0  46189-3 0  99932 57012  97.4911 257.3448 0007603 117.0934 243.1085 15.33757960163247

JSON: /api/v1/satellites/57012 · /tle

For live sub-satellite position, see the globe view (requires WebGL).

§ Visibility from observer

Set your observer location to see the next 7 days of passes ≥ 10°. The values pass through the URL so the page stays shareable.

No JS? Fill the form by hand. The geolocation button needs JavaScript.